Theta_e
327 321 317 314 316 312 309 304 296 295 287 287 286 285 289 294 293 293 294 295 294 298 300 300 300 300 299 297 301 305 306 296 303 287 290 300 319 327 328 336 341 345 347 349 348 348 348 348 351 351 351 352 352 352 351 350 350 349 349 350 350 350 350 349 350 350 349 349 349 349 349 348 349 349 349 348 347 347 346 344 343 343 342 341 338 337 336 338 339 340 340 340 339 339 340 340 340
324 320 316 317 314 312 307 300 291 287 285 285 288 287 293 293 293 293 293 294 296 300 298 298 302 305 306 307 307 307 307 308 310 306 317 323 322 322 326 339 343 344 346 348 348 348 348 348 349 352 352 352 352 351 351 350 350 349 350 350 349 349 349 349 349 349 349 348 348 348 348 348 349 349 348 348 347 346 346 344 343 342 343 341 338 336 335 336 338 339 339 340 339 338 338 337 339
323 319 316 313 311 308 305 298 294 282 283 281 285 288 292 292 292 293 295 297 298 298 297 297 298 298 300 301 303 300 299 311 314 316 318 321 319 323 326 337 342 345 347 348 349 347 348 346 347 351 351 352 352 352 351 350 349 349 350 349 349 349 349 349 349 348 348 348 348 348 348 348 348 347 348 347 346 346 346 344 343 342 342 341 338 335 335 336 337 338 338 338 338 337 338 338 338
318 318 316 309 307 303 297 293 288 285 285 283 285 290 291 291 293 294 296 298 298 297 299 299 297 299 301 300 301 301 300 307 317 314 314 317 314 320 326 332 340 346 346 348 349 347 347 346 347 351 352 352 352 351 351 350 349 349 351 350 349 348 349 349 349 347 347 348 348 347 347 348 348 348 347 347 346 346 344 344 343 343 342 341 338 336 335 335 336 338 338 337 337 336 336 337 338
314 319 316 307 303 302 296 292 286 283 284 283 284 288 292 292 294 294 297 296 296 295 298 298 296 301 303 302 301 296 300 306 313 320 317 318 322 326 328 332 343 344 345 347 348 347 346 344 347 350 351 351 352 352 351 350 349 349 350 350 349 349 349 349 348 347 346 347 347 347 347 347 347 347 347 346 346 345 343 343 342 342 341 340 339 337 335 335 336 337 337 338 337 336 335 336 336
313 312 315 309 303 304 294 287 289 285 287 286 287 290 291 293 294 294 297 296 296 295 296 297 297 298 305 308 307 305 314 304 311 319 319 322 326 329 332 330 343 343 344 346 347 346 346 343 345 349 351 351 352 351 351 350 349 350 350 349 349 349 349 348 348 347 346 346 347 347 346 346 346 347 346 346 345 344 343 343 342 341 339 338 338 336 334 335 335 336 336 336 336 335 335 335 335
312 306 307 303 304 301 292 286 286 285 292 289 291 291 293 293 295 293 296 296 297 297 296 300 304 302 303 307 308 315 317 318 318 320 321 324 326 330 333 334 342 342 343 345 346 346 345 344 348 351 350 350 352 352 351 350 349 350 350 348 348 348 348 348 347 346 346 346 346 346 347 346 345 345 345 344 344 343 343 342 341 340 338 337 336 335 334 333 334 335 334 334 334 334 334 334 334
314 306 304 296 296 291 288 287 288 286 292 291 292 294 292 293 293 294 294 292 295 295 296 300 298 297 298 304 302 314 314 318 321 323 325 325 328 330 332 335 340 341 342 343 343 343 345 343 348 349 350 350 351 351 350 350 349 350 350 349 349 348 348 348 347 346 346 346 346 346 346 346 345 345 345 344 344 343 343 341 340 339 338 336 335 334 333 333 332 333 333 332 331 331 332 334 335
310 305 302 297 291 289 286 288 290 289 293 294 294 294 300 294 292 293 295 294 296 295 295 296 296 295 297 301 302 305 308 311 321 324 325 326 328 330 336 339 339 339 342 344 344 344 344 341 346 348 348 349 350 351 351 350 350 349 349 349 348 348 348 348 347 348 346 346 346 346 345 345 345 344 344 344 344 342 341 341 340 339 338 336 334 332 332 331 331 331 331 331 330 330 330 333 333
305 301 295 295 290 287 285 288 286 291 292 294 293 296 295 295 295 293 294 295 296 295 296 297 295 295 297 297 298 301 305 306 317 323 324 326 327 330 333 336 342 342 342 343 344 346 346 344 342 345 346 349 349 350 350 351 350 349 349 349 348 348 348 348 347 346 346 346 346 346 345 345 345 344 343 344 344 343 341 340 339 338 338 337 334 331 329 329 328 329 328 329 328 328 329 331 331
297 297 298 291 287 285 286 286 288 292 293 294 294 296 296 295 294 294 295 295 295 296 297 297 298 296 295 296 296 302 303 302 315 319 323 325 327 329 330 331 338 344 344 344 345 346 346 345 341 341 343 345 347 349 348 348 349 350 349 349 349 349 349 348 348 348 347 346 346 344 344 344 344 344 343 343 343 342 341 340 339 338 337 336 334 331 328 326 326 328 327 325 325 327 329 330 330
295 293 291 286 289 285 285 288 289 291 292 293 296 294 296 296 295 295 295 296 296 295 296 296 297 296 295 294 296 299 301 302 304 308 324 325 327 327 328 329 331 336 343 344 344 344 343 344 344 341 339 341 342 345 345 346 347 348 349 349 349 349 349 348 348 347 347 346 346 345 344 343 343 343 342 342 342 341 340 339 339 338 336 335 334 330 326 324 324 325 324 322 324 327 327 327 328
295 292 288 286 289 286 287 288 289 291 291 292 293 298 295 295 295 294 294 293 294 294 296 298 297 297 294 295 296 299 299 303 304 315 324 325 324 326 327 328 329 331 335 340 342 342 342 343 344 345 340 335 337 339 340 342 343 345 347 349 348 347 347 348 348 347 347 346 345 345 344 343 342 341 343 342 342 340 339 338 338 337 336 335 333 330 325 323 322 322 321 321 323 325 325 326 326
294 294 289 291 286 288 287 287 288 288 288 291 292 295 296 296 296 293 295 295 295 294 298 299 298 296 295 295 298 297 298 301 302 313 323 324 325 325 325 326 325 327 330 332 332 333 334 342 343 344 342 343 342 337 335 337 340 343 343 343 344 345 345 346 346 345 345 345 343 341 339 339 340 341 341 342 341 340 338 339 337 337 336 334 332 328 325 322 321 321 320 321 322 322 322 322 323
298 295 289 287 284 287 288 287 290 286 288 291 295 297 296 298 294 295 296 293 296 298 298 299 300 298 293 295 293 296 300 302 303 316 324 324 324 323 321 320 317 316 317 321 322 323 326 333 341 343 343 343 342 341 343 339 336 339 339 339 339 342 343 342 342 342 340 340 339 337 336 335 334 335 335 337 338 336 334 333 337 336 335 333 332 328 325 324 322 320 319 319 319 319 320 319 319
299 293 289 289 286 286 290 289 288 287 290 293 294 294 295 298 296 297 297 296 297 299 298 298 299 297 297 294 296 298 300 302 306 318 324 322 315 311 311 311 312 314 316 316 316 317 317 320 324 334 340 338 337 340 341 341 334 333 336 337 335 336 337 338 339 338 333 332 332 331 330 331 330 330 328 332 331 334 331 331 334 335 334 333 331 328 326 324 323 320 318 317 316 317 317 319 319
298 291 287 283 287 287 288 288 288 288 289 292 293 296 296 295 298 297 298 297 297 296 297 298 298 299 297 298 300 301 305 308 316 318 320 310 306 307 307 309 310 311 313 314 314 315 317 317 319 320 322 327 335 339 341 340 338 331 332 331 329 331 333 334 335 329 324 323 325 323 325 333 331 330 331 331 325 329 324 326 331 334 334 332 330 328 325 324 323 321 319 318 317 317 316 315 318
296 290 283 285 287 288 290 289 289 290 294 293 295 294 294 294 297 299 297 297 296 296 297 297 300 299 299 300 302 304 306 307 309 311 306 304 304 304 305 306 308 307 309 311 313 314 315 316 317 318 319 320 322 334 341 341 337 334 338 336 334 331 327 326 329 332 328 330 323 326 333 331 330 331 332 329 329 328 327 324 327 331 333 332 331 329 327 325 324 324 322 320 319 317 311 301 304
291 287 284 287 286 292 292 294 292 293 294 293 294 293 294 295 295 298 294 294 295 295 295 295 297 299 301 302 303 304 305 305 306 305 304 303 303 304 303 305 307 307 309 309 311 312 313 314 315 317 318 318 319 327 338 341 338 339 340 338 337 330 329 329 334 332 333 331 330 333 332 332 330 332 333 330 329 324 327 323 326 329 331 330 329 330 328 327 327 326 325 323 321 316 305 302 303
294 288 286 287 288 294 294 294 295 294 294 293 294 295 295 297 297 298 295 292 294 293 294 295 295 297 299 300 302 302 304 304 305 305 304 303 303 303 304 305 305 305 306 306 309 312 312 313 315 316 317 318 318 319 330 341 339 340 340 339 337 334 332 334 336 335 334 332 332 334 334 332 330 333 328 324 324 329 326 321 324 324 325 325 324 325 326 327 326 325 323 320 315 310 307 306 305
293 288 286 292 291 292 296 295 295 293 294 294 294 294 295 296 295 295 292 293 293 292 294 295 296 297 298 299 301 301 302 303 303 304 303 303 303 304 304 304 304 305 305 306 308 310 311 312 313 316 317 318 318 318 325 334 339 339 340 338 338 336 334 335 336 336 335 335 334 334 335 334 334 334 331 330 330 330 328 327 327 327 327 326 321 319 318 317 315 313 313 311 309 310 309 309 309
289 292 290 290 290 293 296 295 295 292 292 292 292 294 294 296 297 293 293 291 289 294 294 294 297 299 299 299 300 300 301 301 302 303 302 302 302 303 304 304 305 304 305 307 307 309 311 312 313 314 315 316 318 317 318 325 333 339 338 338 337 336 335 335 335 334 333 333 332 333 333 335 334 332 330 330 330 329 327 327 327 327 326 325 320 320 317 316 314 313 312 311 309 309 309 308 307
292 292 292 292 292 294 295 295 294 293 293 292 292 295 295 294 295 293 292 293 291 294 295 296 299 299 300 300 300 300 300 300 301 301 302 302 302 302 303 304 304 305 305 305 306 307 310 312 313 314 314 317 317 317 319 324 327 337 338 338 336 335 333 330 329 329 328 329 330 331 333 333 333 332 331 329 327 327 327 326 326 326 325 324 323 320 318 317 314 312 311 310 309 308 307 307 307
290 292 293 296 294 296 294 296 293 290 292 293 293 295 296 294 295 294 295 295 295 296 297 297 298 299 300 299 299 300 300 300 300 301 302 302 302 302 302 303 305 307 307 308 309 310 311 312 313 314 314 315 316 317 326 325 327 332 330 329 329 327 327 326 326 325 325 325 326 328 330 331 331 330 329 329 328 328 326 325 325 326 326 326 326 323 320 314 312 311 311 309 310 308 308 306 308
293 295 294 296 295 296 294 293 291 292 294 294 294 295 294 293 295 294 295 295 296 296 296 297 298 298 298 299 298 299 300 300 300 300 301 300 300 301 300 301 303 306 307 309 311 313 311 313 314 313 313 313 316 324 325 325 326 327 326 325 323 321 323 322 322 323 322 322 323 323 323 327 328 329 329 329 329 328 326 326 326 326 326 326 326 324 320 316 313 312 312 311 309 309 308 309 308
295 296 294 294 295 295 294 295 293 294 296 293 295 293 292 292 295 294 294 295 295 296 296 296 297 297 297 298 298 299 299 299 299 299 300 299 299 300 299 302 303 305 307 308 310 311 311 314 314 314 316 321 322 323 323 322 322 322 321 320 319 317 319 319 319 319 319 320 320 320 320 322 323 325 326 325 323 324 324 322 322 322 322 323 324 321 320 318 316 315 313 311 311 310 310 309 308
294 294 295 296 296 295 295 296 295 293 296 294 294 293 295 293 295 292 295 296 295 296 295 295 296 296 296 297 297 298 299 298 299 299 298 297 298 298 298 301 304 306 307 307 309 310 313 313 313 314 314 317 320 320 320 320 319 318 318 317 317 315 316 315 315 315 317 317 317 318 318 318 320 319 321 321 320 319 318 319 319 319 319 320 320 319 319 318 317 316 314 312 310 309 309 310 309
295 295 295 294 292 293 294 294 293 294 296 293 294 293 292 292 294 291 294 295 296 296 294 294 294 295 296 296 296 297 297 297 297 298 297 296 296 297 299 301 304 305 303 304 310 311 311 312 312 314 315 316 317 316 316 316 316 316 315 315 314 314 313 313 312 312 311 313 315 316 316 316 317 317 317 317 317 316 315 314 314 315 315 316 316 316 314 314 312 310 308 308 307 306 305 306 307
296 296 294 291 291 295 293 295 294 293 295 293 294 294 291 291 291 291 294 296 295 295 294 293 294 294 294 295 296 295 296 296 296 296 297 297 297 299 301 304 304 305 304 305 309 309 309 310 311 312 315 315 314 313 312 312 312 312 312 312 312 311 310 310 310 309 309 309 310 312 312 313 314 314 314 313 312 313 312 311 310 310 311 311 311 310 310 309 309 308 307 306 306 304 303 302 304
296 293 292 291 289 289 293 294 293 294 295 292 295 287 287 288 292 292 295 295 294 294 293 293 293 294 294 294 295 295 295 295 295 296 296 296 297 299 301 302 302 301 304 308 308 307 309 311 311 311 311 312 311 311 310 310 309 308 308 308 308 307 307 306 307 307 306 306 307 307 308 309 310 311 311 310 310 310 309 309 309 308 309 308 307 306 305 305 304 304 304 302 301 300 300 300 302
294 292 290 288 287 286 292 292 292 294 294 293 294 287 287 290 289 291 294 295 295 294 293 293 293 293 293 293 294 295 295 295 296 296 296 296 297 298 301 302 302 303 304 306 306 306 307 308 309 309 310 309 309 309 308 308 308 307 306 305 305 304 304 304 305 305 305 305 305 305 305 306 306 307 308 308 308 308 307 307 307 307 307 306 305 304 302 300 299 298 300 299 298 298 298 298 299
290 289 285 283 287 284 290 292 293 294 293 293 294 285 290 294 291 293 294 294 294 293 293 293 293 293 293 293 294 294 294 296 296 295 296 296 297 297 299 302 304 304 303 304 306 306 306 307 307 307 308 306 306 306 305 306 306 304 304 304 302 303 302 302 302 303 304 304 304 304 304 304 305 305 305 306 305 305 305 305 305 306 306 304 303 301 299 297 298 295 295 296 295 294 295 295 296
285 289 283 285 286 285 290 294 292 293 291 293 293 288 287 290 289 292 293 294 293 292 292 293 293 293 293 294 294 293 294 294 293 294 295 296 297 299 300 302 304 304 304 305 305 305 305 306 306 306 305 304 304 304 303 303 304 302 303 303 301 300 300 300 300 301 302 302 302 302 303 302 302 302 302 302 302 302 302 302 302 302 302 300 298 296 295 295 294 293 292 292 293 291 292 293 295
283 285 287 284 287 286 286 289 292 292 292 289 290 289 290 290 290 291 292 293 292 292 292 293 293 293 294 294 293 293 293 293 293 293 294 296 298 299 301 302 303 304 304 305 305 304 304 304 304 304 305 303 303 303 301 301 301 299 299 299 299 297 297 298 298 298 297 298 299 299 300 300 299 299 298 297 297 297 297 297 298 299 299 298 297 296 295 294 292 291 290 290 290 290 291 293 295
282 287 286 287 287 287 289 289 292 291 292 290 289 288 290 292 290 291 293 293 293 293 293 293 293 293 293 293 293 293 293 292 292 293 295 296 296 298 300 302 303 303 304 305 304 304 304 303 303 303 303 302 301 300 299 299 298 298 297 296 295 295 295 295 295 295 295 294 295 296 296 296 296 295 295 294 294 294 295 295 295 295 296 295 295 294 294 292 291 289 288 288 289 288 288 289 292
287 287 286 284 287 287 287 289 290 293 289 289 287 288 291 292 293 291 291 292 293 294 292 291 292 292 293 293 293 293 292 292 293 293 294 295 296 297 299 301 303 303 303 304 304 304 304 303 303 302 302 301 301 300 300 298 297 296 295 295 294 293 293 293 293 293 293 293 294 294 294 294 294 293 292 292 292 293 293 293 293 293 293 292 291 290 290 290 289 288 288 287 287 288 288 287 288
289 288 287 287 287 288 289 290 290 290 290 288 290 290 290 291 292 293 292 291 291 292 292 292 292 293 293 293 293 293 292 292 293 293 294 295 297 297 300 302 302 302 303 304 304 303 303 303 302 301 302 302 301 300 300 298 296 294 294 293 291 291 291 291 291 292 292 292 293 293 293 292 292 292 292 292 291 292 292 292 292 291 291 291 290 289 289 288 288 288 287 287 287 287 286 286 286
291 290 287 287 286 287 290 292 292 291 291 285 287 288 289 290 292 292 290 290 291 292 292 292 292 293 293 293 292 292 292 292 292 292 293 296 297 297 300 302 301 301 301 302 302 302 302 302 302 301 302 302 301 301 299 298 297 295 293 291 291 291 290 290 289 290 291 292 291 291 291 291 291 290 290 291 291 291 290 290 290 290 290 289 289 288 288 288 287 286 285 286 285 285 284 285 286
289 289 288 286 287 287 290 290 290 291 290 288 288 287 290 291 292 292 290 292 293 294 294 294 294 293 293 293 292 292 291 292 292 292 293 296 297 297 300 302 301 300 300 300 299 299 298 299 299 298 298 298 298 299 297 295 294 293 292 291 290 288 289 289 289 290 290 289 289 290 290 289 289 289 289 289 289 288 288 288 288 288 288 288 287 286 286 285 285 285 284 284 284 284 285 285 285
288 287 286 286 286 288 286 286 288 291 290 286 286 287 289 291 291 292 293 293 292 292 294 294 294 294 293 293 293 292 292 291 291 292 293 295 296 297 299 300 300 299 298 298 298 297 297 296 297 297 297 297 296 295 295 293 292 292 291 290 290 289 288 288 288 288 287 287 287 287 287 287 287 287 287 287 287 287 287 287 286 286 286 286 286 285 285 284 285 284 284 284 284 283 282 283 284
286 289 287 287 288 287 289 287 289 288 289 290 288 288 290 290 292 293 294 291 291 292 291 292 292 293 293 292 292 293 292 292 292 291 292 293 295 297 299 299 299 298 297 296 296 297 296 296 296 296 295 295 295 294 292 291 290 289 289 289 289 288 288 287 286 285 286 286 286 285 286 286 286 286 286 286 287 286 286 286 286 286 286 285 286 285 284 284 284 284 284 284 283 283 282 281 283
287 287 290 290 289 289 287 288 289 283 284 285 289 282 281 284 288 291 292 289 290 290 291 292 292 291 292 292 292 292 292 293 293 292 292 293 296 298 298 298 298 298 297 297 296 296 296 295 295 295 294 294 293 292 291 291 290 288 287 286 285 285 284 284 284 283 284 284 284 284 285 285 285 285 285 286 286 286 285 285 285 285 285 285 285 285 284 284 284 284 284 283 283 283 283 281 281
285 287 290 291 289 288 288 288 288 281 281 287 288 285 282 282 287 289 289 287 291 289 289 292 291 291 291 292 292 292 292 292 292 292 292 292 295 297 297 297 298 297 297 297 295 295 295 295 295 295 294 293 293 292 292 291 289 289 288 287 286 285 283 283 283 284 284 284 284 284 284 284 284 285 284 285 285 285 285 285 285 284 284 284 284 284 284 283 283 283 283 283 283 284 282 280 280
285 286 288 289 288 288 288 287 288 283 282 286 286 282 282 285 289 292 290 289 290 291 291 291 290 290 290 291 292 292 292 292 292 292 292 293 295 296 296 297 297 296 297 296 295 294 294 294 294 294 294 293 293 292 291 290 289 288 286 285 285 284 284 283 283 283 284 284 284 283 283 283 284 284 284 284 284 284 284 284 284 284 284 283 284 283 282 282 283 283 283 283 283 282 281 281 279
286 289 289 288 289 288 287 287 284 284 284 282 285 286 284 283 284 287 290 289 291 292 294 294 290 289 290 290 291 292 292 292 292 292 291 292 293 296 297 297 296 296 296 296 294 293 294 294 293 293 292 292 291 290 289 287 287 286 286 285 284 284 284 284 284 285 284 284 283 283 283 283 283 283 283 283 283 284 284 283 283 283 283 283 283 283 282 282 282 281 282 282 282 281 282 281 280
290 289 289 288 287 285 283 281 286 282 280 281 283 285 282 285 285 287 287 288 290 293 295 294 290 290 290 290 290 291 291 291 292 293 292 291 292 294 296 297 295 295 296 296 293 293 294 294 293 292 290 290 290 289 288 286 286 286 285 284 284 283 284 283 283 283 282 283 282 282 282 282 282 282 282 282 283 283 283 283 283 282 282 282 283 282 282 282 281 281 281 281 281 281 280 280 280
291 289 290 287 284 282 280 280 280 281 278 283 285 286 286 282 285 288 288 288 291 294 292 286 288 289 289 289 290 291 290 290 291 291 290 291 291 292 293 295 293 293 293 293 292 292 292 292 292 290 289 288 288 287 286 286 285 285 285 284 284 283 283 283 282 282 282 282 281 281 281 281 281 281 282 282 282 282 282 283 282 282 282 283 282 281 281 281 281 280 280 280 280 279 279 279 280
292 285 283 284 284 280 277 276 278 277 279 282 286 286 287 282 281 283 290 288 287 290 291 289 287 289 290 289 289 290 290 290 290 290 289 289 289 290 291 292 292 292 292 292 291 291 291 291 289 288 287 287 286 286 286 285 285 284 284 284 284 283 283 283 282 281 282 281 281 281 281 281 281 281 281 281 281 281 282 281 282 281 281 281 281 280 280 280 280 280 279 279 279 278 279 279 278
288 287 288 283 276 274 275 273 275 276 280 281 283 284 282 285 290 287 288 290 292 289 291 291 289 289 290 289 289 290 290 289 290 289 289 288 289 289 290 291 291 291 291 291 290 290 289 289 288 287 286 286 286 286 285 284 284 284 284 284 284 284 283 283 282 282 282 282 281 281 281 280 280 280 280 280 280 280 281 281 280 280 280 280 280 280 279 279 279 279 279 278 278 278 278 278 278
287 288 284 281 275 274 269 268 269 273 277 280 282 283 283 282 287 292 295 297 291 288 288 289 290 290 290 290 289 289 289 289 289 289 288 288 289 289 290 290 291 291 291 290 289 289 289 288 287 287 286 285 285 285 285 284 284 284 284 284 284 283 282 282 282 282 282 282 282 281 281 280 280 280 280 280 279 280 280 280 280 279 279 279 280 279 279 279 279 278 278 278 277 277 277 277 277
290 288 290 286 281 272 270 273 276 277 276 277 279 280 277 280 286 287 289 287 284 285 286 287 288 288 289 289 289 288 288 288 289 288 288 288 288 289 289 290 291 291 290 290 289 289 288 287 286 286 285 285 285 285 285 284 284 284 283 283 283 283 283 283 282 283 282 282 281 281 280 280 280 280 280 280 280 279 279 279 279 279 279 279 279 279 279 278 278 278 278 278 277 277 277 277 276
285 284 286 283 284 282 283 275 273 272 273 273 276 280 281 285 286 286 285 285 286 284 286 287 286 286 287 287 288 288 288 288 288 288 287 287 288 288 289 289 290 290 290 290 289 288 287 286 286 286 286 285 285 285 284 284 284 284 283 283 283 283 283 283 283 283 281 282 281 281 280 280 280 280 280 279 279 279 279 279 279 278 278 278 278 278 278 277 277 277 276 277 277 278 276 276 275
285 287 285 287 286 287 283 275 277 275 273 280 276 281 282 284 290 291 290 286 286 285 286 286 285 285 286 287 288 288 288 288 288 287 287 287 286 287 289 289 289 290 290 290 289 287 287 286 286 286 285 285 285 285 284 284 284 284 283 283 283 283 283 282 282 281 281 281 281 281 280 280 280 280 280 279 279 278 278 278 278 277 277 277 277 277 277 277 276 276 276 276 276 276 276 275 275
286 283 286 287 287 286 283 278 273 270 274 277 278 281 282 280 284 284 286 285 287 285 284 284 284 284 286 287 287 288 288 288 288 288 287 287 287 287 288 289 289 290 290 289 289 287 287 287 286 286 285 285 285 284 284 284 284 284 283 283 283 283 283 282 282 281 281 281 280 280 280 280 279 280 280 280 279 278 278 278 277 277 276 277 277 276 276 276 276 275 275 275 275 275 275 276 276
288 285 288 290 281 280 281 277 277 273 275 276 277 279 282 285 286 283 286 286 289 288 285 283 284 284 286 286 286 287 287 287 287 287 286 286 286 287 287 288 289 290 289 289 288 287 287 287 286 286 286 285 285 285 285 284 284 284 284 283 283 282 282 282 281 281 281 280 280 280 280 279 279 279 279 279 278 277 277 277 277 276 276 276 276 276 276 275 275 275 275 275 274 274 274 274 274
288 289 288 285 283 278 279 283 275 277 273 270 279 276 283 285 286 287 290 289 290 289 284 285 286 286 286 286 287 287 287 287 287 287 287 287 287 287 287 287 288 289 288 288 288 287 286 286 286 285 285 284 284 284 284 284 284 284 283 283 282 282 282 281 281 281 280 280 280 279 279 279 279 279 278 278 278 277 277 276 276 276 276 276 275 275 275 275 275 275 275 274 274 273 273 273 273
284 286 284 286 282 285 282 282 281 280 272 272 275 279 281 284 289 290 293 292 291 290 289 288 288 287 287 287 287 287 288 287 287 287 287 287 286 286 286 287 288 288 288 287 287 287 286 285 285 285 284 284 284 284 284 284 283 283 282 282 281 281 281 280 280 280 280 279 279 279 279 279 278 278 278 277 277 277 276 276 276 276 277 277 276 275 274 274 274 274 274 273 273 273 273 273 273
290 289 287 289 284 282 280 280 282 277 278 276 270 280 286 284 286 292 292 293 292 290 290 291 289 288 287 288 288 288 288 288 288 287 287 287 286 286 286 286 286 287 286 286 286 286 285 285 285 285 284 284 284 283 283 283 283 283 282 281 281 281 280 280 279 279 279 279 279 278 278 278 278 278 278 278 278 277 276 276 276 276 276 275 274 274 273 273 273 273 273 273 272 272 272 271 272
Wind_Speed
6 5 5 3 1 3 2 5 1 3 5 1 1 2 1 0 1 2 1 3 4 2 0 2 6 4 2 5 11 7 2 2 1 2 3 1 1 1 3 2 8 9 8 6 5 6 5 7 8 9 10 11 12 11 11 11 11 10 9 9 10 12 12 12 12 12 12 12 12 12 12 13 14 14 15 16 15 15 15 15 15 14 14 14 14 14 14 14 14 13 13 14 13 13 13 13 13
4 5 4 1 1 1 1 2 3 1 6 4 1 1 2 2 3 2 3 2 2 1 1 5 9 13 12 12 8 4 7 4 1 2 0 1 2 1 2 4 9 11 7 6 5 5 6 6 9 9 12 12 12 12 11 11 11 10 9 10 10 11 11 12 12 12 12 12 12 12 12 12 13 14 14 15 14 15 15 15 14 13 13 14 14 13 13 13 13 13 13 13 14 14 13 13 13
3 5 5 5 3 3 1 4 1 2 6 3 2 1 1 2 5 3 2 1 2 2 2 6 5 4 2 1 8 4 2 2 3 2 1 3 1 1 3 2 5 9 9 6 6 5 5 6 9 10 12 12 11 11 11 10 11 10 11 11 11 11 11 11 11 11 11 11 11 11 12 12 13 13 15 15 15 15 15 14 13 13 13 13 13 13 13 13 13 13 13 13 14 14 14 14 14
1 1 1 2 0 4 1 3 5 7 5 5 1 2 1 5 4 4 3 2 1 1 0 1 4 3 5 10 3 3 2 1 0 1 0 1 2 2 3 1 4 6 6 6 5 5 5 7 10 10 10 11 11 11 10 9 10 9 9 12 11 11 11 11 11 10 10 11 10 11 11 12 13 13 14 15 15 15 15 13 13 13 13 13 13 12 13 13 13 13 13 13 14 14 14 14 14
3 1 1 3 3 2 2 1 5 3 4 4 5 3 2 3 5 3 1 2 1 3 2 2 4 4 2 5 1 2 0 1 1 1 0 2 2 3 2 2 5 6 6 5 6 5 6 10 10 10 12 12 12 10 9 8 8 7 9 10 11 11 11 11 10 10 10 10 11 11 12 12 13 14 14 15 15 15 14 14 13 13 13 13 12 12 12 13 13 13 13 14 14 14 14 14 15
4 3 2 1 1 2 6 3 4 2 2 4 4 3 5 5 5 4 1 1 1 3 4 4 4 3 4 2 1 2 2 2 1 1 0 1 3 3 1 3 6 7 6 5 5 5 6 11 10 9 12 12 12 11 10 9 8 6 7 10 11 11 11 11 10 10 10 10 10 11 12 12 12 14 15 15 14 14 14 14 13 13 12 12 12 12 12 13 13 13 13 13 14 14 14 14 14
1 3 3 4 2 5 3 5 4 3 1 6 6 4 7 5 5 4 1 2 2 7 3 3 6 5 6 0 2 1 1 3 1 1 1 3 4 4 0 6 7 7 6 5 5 6 7 11 11 9 10 10 11 11 11 9 8 6 7 9 10 10 11 11 11 11 10 10 10 11 12 12 12 14 14 15 15 15 15 14 13 12 12 11 11 12 12 12 13 13 13 13 13 13 14 14 15
1 1 2 3 0 4 3 2 2 3 0 4 4 7 5 5 4 3 2 3 1 2 1 3 1 6 0 3 2 1 4 3 1 1 2 3 4 5 3 8 7 6 6 5 4 3 8 11 12 10 9 9 9 9 10 10 9 7 7 9 9 9 10 10 9 10 10 10 11 11 13 13 13 13 14 14 14 14 14 13 12 11 11 11 11 11 11 12 12 12 12 13 13 13 13 14 14
3 4 0 6 3 3 3 2 1 2 0 1 1 3 5 5 4 4 1 1 1 1 1 2 4 4 1 3 2 2 1 5 3 3 4 4 5 4 4 6 7 5 5 5 4 3 4 8 11 11 10 9 9 9 10 10 9 8 8 9 10 10 9 9 8 7 9 9 10 11 12 12 12 13 13 14 14 14 13 13 11 10 11 11 11 11 11 11 11 11 12 12 12 13 13 13 14
2 2 1 2 3 4 2 1 5 2 2 2 4 3 3 2 1 2 5 3 3 4 3 1 2 5 3 4 0 2 1 4 2 4 4 3 3 4 8 4 5 7 4 4 4 4 4 7 9 9 10 10 9 9 10 9 9 8 8 10 10 11 10 10 9 8 10 10 10 11 11 12 12 12 12 14 14 13 13 12 12 11 11 11 11 11 11 11 11 11 11 11 12 13 13 13 14
1 5 2 4 5 3 4 3 1 1 0 1 1 1 1 1 5 1 0 3 1 3 2 2 7 5 3 0 1 2 2 2 4 1 2 3 4 6 6 5 4 6 7 5 5 4 4 5 8 10 9 10 9 7 6 6 7 6 6 7 7 8 8 8 8 9 12 11 11 11 10 11 12 11 12 13 13 13 12 12 11 11 11 11 11 11 11 11 11 11 11 11 12 12 13 13 14
1 2 3 3 3 6 5 6 2 1 2 1 1 1 1 3 2 3 3 6 0 4 2 2 4 5 3 1 1 1 3 4 1 2 0 2 5 4 5 5 6 4 6 5 5 4 3 3 4 6 9 9 9 8 6 5 6 5 6 6 6 6 7 7 8 11 11 11 12 11 11 11 11 11 12 11 13 12 12 11 11 11 11 11 11 11 11 11 12 12 11 12 12 13 13 13 14
4 1 5 5 1 3 3 6 4 0 0 2 2 0 0 5 3 4 1 4 2 5 3 3 7 3 1 1 1 1 3 1 2 1 1 4 3 3 5 7 7 6 6 5 6 4 3 2 4 4 6 9 9 9 8 6 5 3 4 6 6 7 7 6 8 10 10 10 11 11 10 10 11 9 10 11 11 12 12 11 11 11 12 11 11 11 11 11 12 12 12 12 13 13 14 14 14
3 3 4 1 1 5 6 3 0 4 2 2 2 2 1 1 2 5 6 4 1 2 0 2 2 3 2 2 0 1 1 2 2 1 2 3 4 5 6 5 7 7 6 7 6 4 3 1 3 6 5 6 5 8 8 8 7 5 3 3 5 7 7 7 8 9 9 10 10 10 10 10 10 10 10 11 11 11 11 10 11 12 11 10 10 11 11 11 12 12 13 13 13 14 14 14 14
0 2 4 4 1 3 1 6 10 5 5 2 2 0 2 2 3 0 5 6 2 1 3 2 0 0 4 7 3 2 2 2 2 3 4 5 6 7 6 6 8 7 8 8 6 6 5 5 1 2 4 4 4 4 5 7 10 7 5 4 4 2 7 9 9 8 9 10 11 10 9 10 10 10 10 11 11 11 10 10 11 11 11 10 10 11 11 11 12 13 13 14 14 15 15 15 15
3 5 3 2 0 4 2 1 1 5 3 2 3 3 5 1 1 2 1 1 2 2 2 0 5 0 1 3 1 3 2 3 0 5 6 6 6 6 7 6 6 6 6 7 6 5 4 5 6 3 0 2 2 4 3 6 6 9 7 5 4 5 4 5 8 9 10 11 11 10 10 9 8 7 10 9 11 10 9 7 10 10 10 10 10 10 10 11 13 13 13 14 14 14 14 14 14
3 3 2 3 1 1 1 1 6 4 2 3 3 1 2 1 0 2 1 3 6 3 4 1 1 2 2 2 2 0 2 1 8 6 7 5 5 6 6 7 5 5 5 6 6 6 6 7 6 4 5 6 2 2 4 5 7 9 7 7 6 5 5 7 8 9 8 9 9 9 9 7 5 4 6 6 8 7 8 8 10 10 10 9 9 10 10 10 11 12 12 12 12 11 10 11 10
2 2 5 3 1 2 2 3 7 1 7 4 2 2 5 1 0 0 2 9 5 3 6 2 5 5 2 1 2 3 3 6 5 8 6 5 3 4 5 4 5 4 5 5 5 6 6 6 6 5 4 5 6 2 3 3 4 6 6 6 5 4 2 4 6 5 5 4 7 6 5 5 4 3 5 6 6 7 7 9 11 11 10 8 8 9 9 9 9 10 10 10 10 9 9 7 6
3 2 4 2 3 1 1 1 3 2 3 4 2 0 5 3 4 1 3 0 1 3 3 3 4 3 4 5 5 6 6 7 7 7 7 6 4 5 3 3 5 4 6 6 5 6 5 4 4 5 4 5 4 4 2 4 5 5 5 6 6 7 5 4 4 6 4 4 4 5 4 4 4 4 5 6 6 9 8 9 11 11 10 8 7 7 8 9 9 10 10 9 9 8 6 6 6
0 3 3 0 5 0 0 1 1 2 6 4 3 0 3 1 1 0 2 5 0 5 5 0 0 3 2 1 4 4 7 6 6 8 8 6 4 3 4 4 4 3 3 3 5 4 5 5 6 4 5 5 4 3 4 5 4 5 5 5 5 5 5 3 4 5 5 5 5 5 4 5 4 4 5 9 8 6 6 7 11 12 10 9 8 5 7 8 9 8 8 8 6 4 4 5 6
1 4 2 3 5 3 0 0 2 4 5 4 2 0 2 1 1 1 5 4 2 4 6 7 10 8 6 4 4 4 5 6 5 6 7 6 4 4 3 3 3 1 1 2 4 5 5 5 5 6 6 4 4 3 3 2 6 4 5 5 5 4 5 4 4 4 4 5 6 4 5 5 5 5 5 5 6 6 5 5 6 5 5 5 5 4 4 5 5 5 5 5 5 5 5 5 5
3 1 1 3 2 2 2 2 2 4 1 5 1 3 4 0 1 3 8 4 5 7 5 6 6 9 9 7 4 4 5 5 5 6 5 5 5 4 3 2 2 2 2 4 3 4 5 5 4 4 4 4 3 3 3 4 2 5 5 5 4 4 4 3 2 3 3 1 1 4 4 6 5 5 5 4 5 5 7 6 6 5 5 5 3 5 4 5 4 4 5 5 5 4 5 5 4
2 1 0 2 3 3 2 2 2 5 2 4 3 2 2 1 1 1 5 5 2 3 2 6 8 7 6 5 5 5 5 4 4 5 5 5 5 4 3 2 3 3 3 3 3 3 4 4 5 4 4 4 3 2 3 3 1 3 3 4 5 4 5 6 5 5 5 4 3 1 4 4 5 5 6 5 4 2 6 6 6 6 6 5 4 4 4 4 4 4 5 4 4 4 4 4 5
7 2 0 2 1 5 5 3 4 4 9 4 3 2 2 2 3 0 2 1 2 1 5 6 6 6 6 7 5 7 5 5 4 4 4 5 5 4 3 3 2 1 1 3 3 3 3 5 4 4 4 2 2 1 3 3 3 5 5 7 7 6 7 6 6 5 5 5 3 4 2 3 4 4 3 5 5 4 2 1 3 5 5 4 4 4 4 3 4 4 4 4 5 4 4 4 5
3 1 1 1 0 1 3 4 3 3 2 2 5 3 3 5 1 2 3 3 3 4 5 7 7 6 5 7 6 6 6 5 5 4 3 3 4 3 3 3 2 1 2 2 3 3 3 4 4 4 2 1 3 4 6 4 5 6 7 7 6 7 6 6 5 5 6 5 5 5 5 3 4 4 4 3 4 4 4 5 3 2 1 3 3 3 5 4 5 4 5 5 5 4 4 4 4
0 0 1 0 1 0 1 0 2 4 1 3 1 3 3 6 1 3 4 6 4 4 5 6 6 7 6 6 6 7 6 6 5 4 4 3 3 5 3 2 1 2 1 2 2 3 3 4 3 3 2 6 6 6 5 6 5 7 7 7 6 8 6 5 6 6 5 5 6 5 4 3 5 2 5 5 6 5 6 5 6 4 4 3 4 5 5 4 4 4 4 5 6 6 6 5 5
2 1 0 0 1 1 1 5 4 3 1 3 4 0 1 2 4 6 0 6 4 5 5 3 6 6 5 5 4 5 7 6 6 5 3 3 2 4 2 2 1 0 1 2 2 3 3 3 4 3 3 5 6 7 6 7 6 7 7 6 7 7 5 6 7 5 6 6 5 5 6 6 6 4 6 6 6 7 6 6 6 4 5 4 5 7 5 5 5 5 5 6 6 6 6 5 6
2 2 0 1 5 2 3 1 4 1 2 4 4 3 1 2 1 7 5 6 6 9 6 5 5 5 5 4 4 3 4 3 4 4 6 4 4 3 2 2 1 1 1 1 2 2 3 4 4 3 3 6 9 8 8 8 7 8 7 7 7 7 7 8 7 6 7 6 6 7 6 6 6 6 7 7 7 7 7 7 6 6 6 5 6 7 7 6 7 6 7 7 7 7 7 6 5
0 1 1 5 6 4 2 6 5 5 3 4 4 1 3 1 6 3 5 8 6 7 7 5 5 5 5 4 4 3 4 3 3 4 4 3 3 2 4 0 1 1 1 1 1 3 4 4 3 4 4 6 9 8 7 7 6 7 7 7 7 6 7 7 6 7 7 6 7 7 7 7 6 6 7 8 8 7 7 7 7 7 6 6 7 8 8 7 7 7 8 6 7 7 7 5 5
1 3 1 5 5 5 3 0 1 6 1 5 3 3 7 8 7 2 5 9 6 6 6 6 5 5 5 5 4 4 2 3 3 4 4 3 3 3 4 1 1 1 0 1 2 4 2 2 3 4 5 8 9 8 7 8 6 7 7 7 7 7 7 6 7 5 6 6 7 8 7 7 7 6 7 8 7 8 8 8 8 8 7 8 8 8 8 7 7 7 6 7 7 7 6 5 6
0 1 3 0 3 4 2 0 3 7 1 5 2 3 8 7 5 2 6 9 12 10 8 7 6 6 5 4 5 5 4 3 5 4 3 3 3 2 3 2 1 1 1 2 4 3 4 4 3 4 6 7 9 8 9 8 5 7 7 5 6 5 5 7 7 7 7 6 7 7 7 7 8 7 7 7 8 8 8 8 8 7 7 8 9 8 8 7 9 8 6 8 6 6 6 6 6
1 2 4 4 2 5 7 2 7 7 1 1 3 1 10 10 5 6 7 6 7 9 8 8 7 7 6 5 5 5 4 3 3 3 3 3 3 3 3 3 2 2 3 3 5 4 5 5 5 7 6 9 9 9 8 9 5 9 8 5 5 6 9 10 7 7 6 6 7 7 8 8 8 8 7 7 9 8 8 8 7 7 8 9 8 8 9 9 7 8 7 5 7 6 6 7 6
4 2 4 2 1 5 8 0 1 1 4 1 6 7 3 5 4 5 5 7 7 7 7 8 9 9 8 7 6 4 4 3 3 3 3 3 2 2 2 2 3 2 3 4 5 6 6 5 6 8 7 9 10 9 10 11 6 10 8 7 7 7 11 9 7 6 7 7 6 7 7 8 8 8 8 7 9 8 8 8 6 7 6 8 8 7 8 5 7 7 8 7 5 6 7 6 7
2 1 3 3 2 1 2 4 1 1 5 4 3 2 8 4 2 4 5 7 7 7 9 9 9 8 8 6 6 6 5 5 5 4 4 3 3 2 2 2 3 3 3 5 5 5 6 5 6 8 7 8 9 8 9 10 8 9 9 8 8 9 11 9 7 7 7 6 6 7 7 7 8 9 8 7 9 8 8 8 7 7 7 8 9 9 8 6 6 7 9 7 6 7 7 7 8
3 2 1 6 2 4 5 1 1 4 1 5 3 5 11 12 4 5 8 6 8 11 11 10 9 7 7 7 7 7 6 6 6 4 4 4 3 3 2 3 3 3 4 6 7 6 7 6 6 8 8 9 9 8 10 10 10 9 9 9 9 10 10 8 7 7 6 6 7 7 7 8 8 9 8 7 9 8 9 8 8 7 7 8 9 9 8 8 7 6 8 8 9 8 7 6 5
4 7 5 3 2 3 3 6 3 9 5 5 6 9 12 13 13 6 7 8 11 13 5 4 6 7 7 8 8 7 6 6 4 4 4 3 3 3 3 3 3 3 4 6 7 6 7 8 7 7 8 8 8 8 8 9 8 7 10 9 10 9 8 8 7 7 6 7 7 7 8 8 8 8 8 7 8 9 9 8 9 7 7 8 9 10 8 7 7 9 9 7 8 9 8 6 4
2 2 2 4 4 6 4 3 4 4 1 7 9 10 9 10 10 10 7 5 7 8 9 9 8 9 10 10 9 8 8 7 5 5 5 4 4 3 3 4 4 3 4 6 7 7 7 8 9 9 7 7 7 8 7 7 9 9 7 8 10 7 8 7 7 6 7 6 7 8 8 8 8 8 7 7 9 9 9 8 9 8 7 9 9 8 6 6 5 6 7 8 9 10 8 7 4
3 2 2 6 3 7 5 2 1 0 5 4 5 7 11 13 11 10 2 6 13 14 13 12 11 12 11 11 9 9 7 3 5 4 4 4 4 3 3 4 5 8 4 5 7 7 7 6 8 9 7 7 5 6 7 6 4 5 10 7 8 7 7 7 6 4 7 7 7 8 8 7 8 7 7 8 8 8 9 8 9 8 8 9 8 7 6 7 7 7 4 10 7 10 6 5 6
3 4 4 3 7 4 8 5 2 1 2 9 6 7 11 10 10 7 6 11 10 13 15 17 16 13 11 11 10 9 7 8 5 5 4 5 5 4 4 5 3 3 6 5 5 7 7 6 5 5 6 6 6 6 6 7 7 7 7 8 8 9 6 5 7 7 7 8 7 7 7 7 7 8 7 7 9 8 9 9 8 7 7 6 8 9 8 9 7 7 6 7 7 4 7 6 9
4 3 2 8 3 1 6 3 1 1 3 2 0 5 9 7 7 11 11 11 7 6 11 13 11 14 15 16 16 15 12 11 11 9 8 7 6 5 5 5 5 4 5 4 5 7 6 5 5 6 7 6 7 6 8 8 10 11 10 9 8 7 9 7 8 7 7 9 9 7 7 6 7 8 7 8 8 9 9 9 7 8 8 7 8 9 9 8 7 7 6 5 4 7 5 7 7
4 6 6 4 5 6 8 5 2 2 3 0 5 8 11 7 13 11 8 3 5 6 5 9 10 8 7 4 5 10 16 14 11 9 8 8 8 7 7 7 5 5 5 4 5 6 5 6 6 6 7 7 7 9 10 11 12 12 10 10 9 11 8 7 9 8 6 6 7 8 7 5 7 8 7 7 8 9 8 8 9 8 8 7 8 9 8 7 6 5 5 6 6 7 6 4 8
4 6 10 9 6 7 4 2 2 5 5 2 0 5 6 5 8 12 7 0 4 4 7 12 12 8 9 12 13 8 7 9 14 14 12 10 9 8 7 8 7 5 6 4 4 6 7 6 7 7 7 8 9 10 12 10 12 14 11 11 9 8 8 6 8 10 7 7 7 4 6 6 6 7 7 7 8 8 9 8 8 9 9 8 7 8 6 6 7 8 6 5 7 6 9 7 6
3 7 10 9 7 6 3 1 2 3 5 3 1 5 11 1 5 6 7 3 10 4 7 14 8 9 9 11 11 12 12 9 5 6 8 10 9 9 9 9 8 7 6 6 5 7 6 6 7 9 9 8 8 10 8 8 9 9 10 10 10 11 11 4 4 4 8 6 6 7 6 6 6 8 7 7 8 8 9 8 9 8 8 7 6 7 8 7 6 5 5 7 5 3 5 7 6
5 2 5 6 5 5 6 4 6 6 1 4 1 3 4 16 8 8 7 5 7 10 12 12 8 7 9 9 11 12 12 12 12 11 11 10 10 11 12 10 8 8 8 7 6 6 8 8 8 8 8 8 8 8 7 4 8 8 8 8 8 9 11 10 7 6 5 6 8 7 6 6 7 6 8 7 7 8 8 8 8 8 8 6 7 7 7 6 7 6 6 6 6 6 6 8 5
4 0 6 5 6 4 2 3 3 1 2 8 1 0 3 9 4 2 3 6 9 15 17 14 10 9 9 9 10 11 12 12 13 13 13 12 12 11 10 10 8 8 8 8 7 6 7 7 7 7 7 6 6 5 5 4 3 8 11 11 9 6 11 9 6 6 7 6 10 6 8 6 7 7 7 7 7 7 7 7 7 8 8 7 7 7 6 7 7 7 7 8 8 7 6 5 7
1 6 8 7 7 6 4 3 2 2 1 8 7 5 5 19 4 3 1 3 10 13 16 9 8 12 12 10 8 9 8 8 9 11 12 10 8 8 8 8 7 6 7 6 5 5 7 7 7 8 6 5 6 7 6 5 6 8 11 11 15 10 9 8 7 8 7 6 9 7 6 7 6 7 6 6 7 7 7 7 8 8 8 7 7 7 7 8 7 8 7 6 7 8 5 7 7
6 4 7 6 9 4 3 6 2 2 6 8 9 10 7 12 2 9 9 9 10 10 7 3 1 6 7 7 10 11 11 10 9 8 8 8 6 7 7 10 7 6 6 7 7 6 6 8 7 8 6 6 6 8 8 8 6 5 11 12 16 14 11 12 10 8 7 7 9 7 7 6 5 6 6 6 6 6 7 7 8 7 6 6 7 7 7 7 6 7 7 7 7 7 6 7 7
7 2 4 5 2 6 4 4 4 1 10 3 12 12 11 12 4 5 6 3 3 6 7 6 5 10 11 9 9 10 11 10 10 9 9 9 7 6 6 8 7 8 8 8 7 6 6 8 7 8 6 6 7 7 8 7 7 5 8 12 13 13 13 11 13 12 10 10 9 9 6 7 6 6 6 6 6 5 7 7 6 7 7 7 7 6 6 6 6 6 6 6 6 6 5 7 6
5 6 7 6 3 4 2 3 2 7 10 1 1 4 2 19 9 3 7 8 9 6 6 6 7 9 10 9 10 10 8 8 10 10 10 10 11 11 10 9 8 9 9 9 8 7 7 7 8 10 8 7 8 9 9 7 7 7 8 10 10 10 9 10 11 11 9 10 9 9 8 8 7 7 6 7 5 5 6 7 7 7 7 6 6 6 5 5 6 6 6 7 6 6 5 5 7
6 8 7 7 1 1 3 4 2 6 6 3 1 1 9 2 7 11 17 18 5 4 5 5 6 9 12 13 10 9 9 10 10 11 11 11 11 10 10 11 10 9 10 10 9 9 8 8 8 10 10 8 7 8 9 8 7 8 7 9 9 9 9 9 8 10 9 8 8 9 9 9 8 8 7 7 5 5 5 5 6 6 6 6 6 6 6 4 5 7 6 7 6 4 5 7 7
11 3 12 10 9 6 4 6 6 7 4 3 3 4 8 4 6 1 7 6 4 4 5 6 5 5 5 6 7 8 9 9 10 11 12 12 12 12 11 10 10 10 11 11 9 9 8 8 8 9 9 8 8 9 8 9 8 7 6 7 7 6 8 8 7 7 8 9 7 8 7 6 8 6 7 6 5 6 6 6 6 7 6 6 5 6 6 5 5 6 6 6 6 4 6 6 5
2 2 6 5 9 7 8 4 3 1 1 3 2 7 5 7 2 3 3 4 5 3 2 0 2 3 8 9 12 13 11 11 10 11 11 11 11 11 10 10 10 10 12 10 11 9 8 8 8 9 11 10 9 9 9 10 8 7 6 7 7 7 6 6 6 5 5 6 7 8 8 7 7 7 6 6 5 6 7 7 6 7 5 6 5 6 5 6 5 7 6 6 6 3 6 6 4
5 6 8 8 1 5 2 2 1 1 2 12 4 9 7 8 11 11 12 3 5 2 1 0 2 4 6 10 11 11 12 12 12 12 12 11 9 10 11 11 10 10 10 11 11 9 10 9 9 9 9 9 10 9 10 9 9 8 7 7 8 7 8 9 9 8 7 6 6 7 8 7 7 6 7 5 6 4 6 7 7 6 5 5 6 5 6 6 5 6 6 6 6 4 6 5 4
8 4 8 2 2 3 3 5 2 1 4 7 5 9 7 1 12 2 1 2 10 5 5 3 2 4 9 10 10 12 14 14 12 10 10 11 12 12 10 9 9 10 11 11 10 8 8 9 10 11 10 12 10 10 10 10 11 10 9 8 7 8 8 8 8 9 8 8 7 7 7 8 7 7 7 6 6 6 6 6 7 6 5 5 6 5 6 6 6 6 5 5 4 5 5 4 3
6 7 4 8 4 2 2 3 5 1 6 7 5 4 12 11 11 3 2 7 12 12 6 4 7 8 11 8 8 7 6 7 10 11 11 11 12 12 11 10 9 9 10 10 9 8 8 7 8 11 12 11 11 9 9 8 9 8 8 9 9 8 7 8 7 8 8 9 9 8 8 7 7 6 7 8 7 7 7 6 6 6 5 6 5 6 6 6 5 6 5 6 4 5 5 4 2
2 3 3 1 3 1 5 8 3 5 4 1 10 7 17 5 8 9 10 12 13 9 6 12 14 14 11 9 9 11 12 12 11 11 11 11 11 11 12 12 11 11 10 9 10 8 10 9 9 8 8 8 8 10 10 11 9 9 9 8 7 7 8 9 9 10 9 9 9 9 8 8 8 6 7 7 7 8 8 8 6 7 7 6 6 5 6 5 5 5 5 6 4 5 5 4 3
1 2 4 1 1 2 3 0 5 5 4 6 7 12 6 5 7 12 13 12 13 11 14 14 13 12 11 10 12 12 12 11 11 11 11 11 11 10 9 8 8 8 7 8 9 11 10 8 9 10 12 11 11 11 10 10 9 9 11 10 10 9 9 8 8 8 9 8 8 7 7 7 6 6 6 7 7 7 7 7 8 7 8 7 7 6 5 5 5 5 4 4 4 4 5 3 4
12 15 14 15 10 5 4 9 1 2 3 6 1 14 13 4 2 8 8 8 7 9 12 14 9 9 12 11 11 12 12 11 11 10 10 10 9 9 8 7 7 9 9 10 9 9 10 10 10 10 10 11 12 11 10 10 8 9 10 10 9 8 9 8 9 8 9 9 8 8 7 7 7 6 6 6 6 5 4 5 6 7 7 6 6 6 5 5 6 5 4 3 4 4 4 3 3
Wind_Direction
326 322 310 313 52 90 54 3 124 322 63 1 42 32 201 318 205 59 21 336 67 281 176 10 43 39 117 149 130 121 21 130 266 126 199 231 309 317 321 150 143 140 148 157 162 151 162 149 145 142 140 132 129 128 126 123 119 114 110 102 110 107 107 103 100 100 99 96 96 99 98 98 97 93 90 89 84 82 78 75 70 64 60 58 58 58 59 58 57 56 55 55 54 53 50 48 46
308 323 318 342 120 75 296 126 98 19 40 64 42 85 153 299 47 145 143 169 187 137 93 87 79 82 92 117 135 124 31 18 239 175 279 277 341 308 2 125 142 142 150 151 160 153 148 156 149 151 144 139 135 135 134 130 126 123 111 107 109 111 108 107 105 102 101 99 99 98 98 96 97 99 97 91 88 84 80 75 70 65 62 60 59 59 60 61 62 61 58 57 55 54 52 50 47
330 352 358 29 29 82 90 40 172 71 86 74 284 185 346 69 130 217 212 159 193 218 129 116 107 71 47 76 38 49 211 346 15 18 102 336 118 140 3 171 150 142 149 150 154 156 146 152 153 154 147 141 140 139 138 134 132 129 123 121 117 117 114 110 107 105 102 100 99 99 100 102 101 100 99 96 94 87 81 75 71 66 62 61 60 61 62 62 63 64 64 61 58 57 55 53 53
29 33 94 63 242 26 64 30 89 120 110 183 85 294 175 160 187 198 230 228 258 96 126 29 57 293 102 68 130 61 58 7 342 248 323 311 194 248 316 192 163 139 141 150 155 157 147 157 152 154 149 145 144 142 140 140 138 136 129 126 127 121 119 115 110 108 108 108 104 103 104 103 103 104 101 100 94 90 83 75 69 64 62 60 60 61 62 63 63 64 66 65 63 60 59 59 60
42 344 82 98 104 0 99 111 134 99 128 190 146 265 247 196 181 221 257 267 323 103 78 117 75 341 75 107 27 106 241 283 320 94 234 269 279 266 288 203 147 151 157 156 153 157 155 153 155 155 155 152 148 145 143 146 145 139 130 129 127 125 122 120 117 113 112 114 114 110 110 110 111 109 106 102 96 89 83 76 68 63 59 57 59 60 62 61 62 62 62 64 63 61 61 62 66
62 48 15 88 71 166 49 44 46 60 218 153 118 213 215 207 171 205 223 315 344 60 127 63 151 173 31 359 95 79 311 78 237 344 186 278 299 300 261 184 155 168 162 155 151 152 158 156 154 160 158 155 152 151 150 150 151 137 129 133 132 132 132 128 125 122 122 119 116 112 110 112 115 111 106 101 97 91 85 79 72 66 60 58 58 61 63 63 62 61 60 61 62 63 63 64 66
354 42 354 24 13 50 156 118 106 150 318 155 165 178 198 217 197 131 144 72 6 45 9 124 118 98 80 261 22 69 304 245 51 280 147 303 318 332 292 157 161 171 160 157 158 158 162 159 158 161 159 157 155 155 154 154 152 141 139 140 135 136 134 132 131 129 128 123 118 114 111 114 117 114 110 105 99 93 87 82 78 73 67 63 61 63 66 67 67 66 63 61 60 60 63 69 70
62 107 322 98 332 52 56 147 132 162 195 160 202 150 214 208 184 124 148 96 220 81 356 135 165 100 264 59 142 276 13 13 347 331 329 337 353 356 81 140 158 163 163 154 155 163 165 163 159 159 157 159 155 157 154 155 153 146 146 146 143 140 138 135 133 131 130 127 122 120 123 123 122 119 115 109 105 100 95 91 85 80 75 71 68 67 69 71 72 72 71 67 64 62 63 63 61
354 86 358 64 51 30 57 74 114 236 49 69 179 236 200 186 169 122 104 230 85 64 30 215 188 79 232 46 91 283 339 331 339 13 14 7 12 6 60 120 155 160 150 143 133 140 156 168 161 157 157 159 158 163 160 157 154 152 149 148 150 147 142 138 133 128 129 125 123 121 125 128 125 125 122 118 112 106 104 100 95 86 80 75 74 74 75 74 73 74 74 72 69 68 68 68 64
22 79 325 111 128 56 44 6 83 178 179 213 152 166 188 208 163 105 140 66 120 94 357 38 135 108 145 102 91 351 322 326 319 27 3 20 357 44 62 63 132 135 124 127 129 143 152 162 158 158 157 162 164 167 164 160 158 158 155 155 156 154 148 141 138 138 129 122 120 122 127 132 128 128 124 120 116 114 108 105 102 94 85 79 76 77 78 76 75 74 73 73 71 71 72 71 67
7 8 142 70 40 113 135 215 272 356 206 295 269 227 232 175 112 128 105 137 327 117 199 62 47 121 88 235 186 249 288 345 50 326 334 18 25 46 69 54 71 121 123 121 123 121 133 154 161 160 166 160 159 163 150 158 160 161 152 158 157 152 148 141 141 133 133 129 124 126 129 133 133 127 127 125 120 113 108 106 101 97 90 83 78 77 76 74 73 70 69 69 71 73 74 71 69
22 7 4 109 124 158 218 143 187 245 299 319 146 317 266 114 97 87 114 108 29 67 50 97 177 146 62 81 251 254 314 13 350 274 257 49 47 30 55 57 66 63 102 110 100 75 93 126 153 165 163 160 158 154 162 175 171 161 155 159 157 144 138 133 126 130 134 133 128 127 137 141 131 137 132 128 120 117 115 112 104 99 94 88 84 82 80 79 74 69 66 65 67 70 70 69 70
111 113 78 76 173 93 163 109 197 174 355 260 180 333 73 58 115 159 172 104 27 84 33 337 142 90 136 182 252 333 26 313 306 218 148 81 62 47 55 60 59 66 61 64 70 71 82 92 151 171 165 162 159 158 162 175 168 158 166 170 161 151 145 138 132 134 135 136 135 131 130 131 137 145 131 123 123 124 120 114 108 101 94 89 85 85 85 84 82 79 72 67 66 67 65 65 64
108 174 120 114 38 118 130 164 3 131 253 243 262 293 14 111 239 176 131 76 6 89 226 270 100 125 100 73 235 296 258 270 298 141 107 68 69 60 61 58 57 56 48 60 58 52 28 259 204 150 157 157 173 160 161 163 178 182 179 159 164 157 150 138 131 132 136 137 135 131 132 136 138 141 133 130 131 127 124 118 111 104 98 93 89 88 86 85 83 79 77 74 70 66 63 62 60
99 132 85 115 55 97 229 125 191 154 219 198 260 70 61 357 99 23 129 126 79 49 299 48 167 97 217 143 249 198 226 266 314 126 91 64 51 51 49 51 58 50 42 43 36 32 11 351 16 117 147 142 162 165 163 170 168 183 154 117 71 140 154 146 140 139 133 131 137 139 140 141 144 141 138 137 130 129 128 118 110 106 101 96 90 85 84 79 76 73 70 70 69 65 60 57 58
144 82 81 100 60 133 230 106 50 119 221 177 271 137 87 325 164 91 260 151 159 11 30 301 12 134 71 119 203 195 240 292 120 121 98 68 46 46 47 42 48 47 46 33 28 17 11 26 19 13 84 193 165 157 191 157 165 163 171 140 73 74 122 142 146 144 141 140 142 142 140 139 141 135 134 134 133 125 115 110 106 102 100 93 85 82 80 76 73 70 68 68 67 65 62 56 51
50 82 54 30 101 120 226 139 146 194 240 252 281 214 145 214 284 89 343 42 86 356 42 1 329 47 58 141 184 177 346 88 106 99 93 55 48 38 28 27 18 34 21 25 21 6 7 13 13 29 8 358 337 195 199 168 177 165 158 169 124 87 144 169 155 142 138 138 139 139 132 132 143 135 129 130 124 116 112 111 106 106 102 93 89 85 83 82 79 74 70 65 60 60 56 56 49
58 62 117 47 170 98 193 175 188 223 138 219 185 190 109 138 18 183 46 32 85 56 63 341 26 42 71 50 59 55 28 79 102 103 85 68 46 46 42 14 26 15 4 359 6 8 7 7 358 4 1 360 340 306 208 189 160 178 161 164 169 147 102 148 152 127 134 120 133 136 132 138 145 133 121 123 124 126 122 122 116 115 113 106 101 98 92 86 83 77 73 69 65 62 62 59 52
92 104 81 160 198 268 168 191 208 135 190 171 193 93 140 206 136 234 85 254 109 55 10 31 56 36 48 38 35 47 56 64 91 97 96 89 70 78 69 43 39 13 11 358 352 360 1 344 358 354 355 346 339 337 226 187 184 168 165 163 163 181 141 181 149 133 131 139 150 141 143 146 152 147 139 143 145 144 135 136 126 124 122 120 111 104 100 87 79 81 80 77 71 64 62 63 62
165 109 79 230 211 161 354 155 195 237 142 128 124 56 130 189 135 182 163 177 18 159 156 321 199 171 139 48 50 54 65 69 77 98 96 91 81 82 68 60 49 30 357 346 325 334 356 354 344 343 338 332 331 340 311 192 183 181 164 162 163 172 153 180 151 149 144 160 164 153 151 154 157 142 120 135 135 141 137 128 127 127 126 123 118 98 75 74 78 78 76 70 63 57 57 54 53
279 68 150 184 195 105 278 198 131 107 122 146 116 44 98 271 201 102 151 101 265 268 220 165 193 178 169 154 104 81 73 78 77 87 97 96 91 77 83 89 91 29 323 310 352 341 338 342 342 336 332 329 329 330 334 282 188 184 158 162 159 160 151 178 141 144 139 164 167 162 158 160 167 150 139 156 155 149 134 133 130 132 130 121 117 100 95 95 92 84 72 65 65 64 63 53 58
80 70 207 169 116 90 235 202 203 115 90 96 84 113 197 9 28 119 156 176 219 212 220 198 165 159 155 148 135 91 88 92 91 91 96 98 94 82 69 55 48 48 355 28 339 326 326 329 327 317 319 311 313 330 306 260 233 163 150 160 157 152 133 127 137 111 118 50 93 160 162 165 159 138 138 174 152 151 146 150 148 144 143 140 141 124 120 110 103 104 96 86 72 64 65 68 60
98 320 23 222 221 135 219 219 212 136 106 126 144 212 71 97 203 210 170 192 234 240 164 154 147 151 147 129 124 107 109 107 112 114 113 102 91 82 81 85 71 37 15 349 321 311 313 324 321 320 310 308 333 295 283 331 142 157 153 143 142 119 102 90 75 72 77 76 41 120 164 159 154 157 160 149 126 166 155 158 153 153 158 148 140 130 131 119 118 101 91 90 77 70 59 64 69
101 163 326 22 117 137 176 190 138 127 118 183 196 84 167 139 192 191 188 272 240 138 118 120 123 124 129 119 130 137 137 133 121 115 118 120 117 111 115 91 80 61 24 351 328 315 328 320 310 309 300 300 288 286 73 53 57 85 79 83 78 82 92 80 78 79 81 69 65 38 81 143 138 122 127 149 161 137 93 66 135 154 148 150 141 142 123 98 84 79 84 76 75 58 67 49 67
89 75 200 258 39 232 199 178 160 154 178 114 104 142 228 173 189 108 244 190 178 148 107 106 117 114 110 122 132 134 131 120 113 117 97 103 111 108 74 71 51 47 37 353 318 330 326 313 313 321 309 163 123 95 76 71 72 84 82 78 78 84 74 85 79 78 73 68 51 52 17 86 99 125 138 114 132 136 109 112 90 48 106 132 140 109 97 98 77 73 81 88 82 76 63 48 56
147 182 143 5 286 289 227 254 206 185 151 146 101 248 277 240 12 226 205 188 187 138 100 122 119 118 133 139 142 144 143 139 140 126 134 140 109 87 65 81 91 87 14 339 328 330 320 323 343 354 30 105 104 91 86 80 74 83 77 79 80 80 62 83 82 64 64 68 57 46 55 48 68 85 101 84 78 65 88 66 62 56 40 47 88 91 94 102 103 85 66 72 67 52 46 23 51
158 142 152 170 260 359 216 194 229 234 237 178 183 233 238 342 157 273 161 186 159 121 127 134 129 141 148 147 144 141 143 157 153 147 115 109 105 114 136 99 83 87 26 357 334 332 320 341 8 18 48 97 95 89 88 82 79 82 83 85 75 77 77 64 65 63 69 58 56 62 52 51 78 63 87 90 85 83 72 71 66 63 61 37 77 83 72 77 74 71 66 71 69 66 58 52 60
82 148 285 318 333 246 229 277 263 110 272 171 163 225 296 312 103 229 192 184 167 148 154 156 144 150 155 154 143 143 133 162 147 143 142 142 156 153 121 132 150 72 43 339 343 315 358 10 3 32 62 92 95 90 87 82 81 87 85 84 74 82 79 69 65 66 59 62 56 57 52 47 62 73 79 85 93 88 79 76 71 63 57 43 52 65 66 61 66 59 55 62 64 60 59 49 44
177 71 352 300 352 349 247 201 215 158 238 152 144 354 289 206 225 257 186 153 164 153 162 171 164 166 161 156 141 147 155 163 157 135 166 172 172 159 120 248 137 104 324 296 354 30 22 2 19 24 63 86 90 84 80 81 75 84 77 81 79 78 85 81 68 62 65 56 60 60 59 60 57 70 74 82 87 85 84 79 71 65 56 60 62 62 66 62 62 59 55 58 60 65 59 45 49
108 38 114 345 357 331 298 301 125 151 247 150 153 274 270 252 241 306 161 152 141 148 175 183 180 173 174 165 161 159 168 147 148 163 170 167 165 168 129 160 203 172 178 87 59 53 18 19 42 49 49 82 87 81 83 82 71 80 79 73 84 84 77 79 75 64 64 61 63 57 60 58 64 66 79 82 84 86 81 78 80 74 71 71 71 65 64 55 60 58 50 60 50 57 57 40 51
173 275 58 268 15 278 291 347 176 154 186 177 79 205 282 271 276 235 185 164 161 180 188 189 185 184 182 179 165 172 198 198 168 171 165 149 156 157 138 163 160 154 130 89 76 73 57 51 55 65 55 85 89 86 85 82 55 84 79 77 82 80 96 77 68 66 63 62 64 61 61 64 67 69 70 86 79 82 82 79 73 76 79 76 74 68 75 61 60 53 37 66 60 55 61 51 52
27 45 295 326 147 276 300 283 159 165 306 131 102 310 244 272 268 192 184 176 173 183 191 193 191 189 188 181 175 177 188 184 167 155 156 158 158 151 147 139 127 101 112 109 95 81 72 65 72 82 68 88 78 90 86 88 76 81 72 60 86 84 81 74 61 63 70 69 69 72 66 68 69 70 75 83 88 84 88 86 85 88 86 83 80 80 76 68 69 65 43 54 77 52 58 51 44
349 133 269 285 163 263 337 47 255 127 119 325 175 218 324 295 297 190 184 176 187 191 202 200 198 194 188 188 182 173 164 170 162 160 158 149 174 164 160 133 124 117 125 114 106 103 87 82 83 85 88 93 90 86 98 90 83 88 81 72 61 74 80 75 68 64 68 70 70 72 71 74 73 73 70 69 83 83 84 86 81 83 82 83 80 73 70 69 69 74 54 44 61 81 63 67 60
309 1 216 206 194 258 273 299 232 217 144 206 255 226 241 232 309 209 203 190 185 209 212 207 201 198 194 186 183 177 176 172 179 179 174 166 171 169 168 144 128 120 112 103 105 106 104 99 98 100 95 93 100 99 98 102 95 87 90 78 72 71 74 76 72 69 67 64 69 72 71 73 73 72 70 71 79 75 75 77 72 69 77 79 78 72 67 61 61 64 74 52 52 66 62 69 77
212 181 258 289 252 211 236 309 242 131 260 187 215 234 261 267 260 219 212 201 198 217 212 206 201 198 195 193 190 187 181 182 191 187 174 174 173 178 177 137 121 123 120 115 112 109 107 104 105 105 107 106 102 107 103 98 97 90 86 83 78 75 73 70 75 75 70 71 67 68 71 74 71 69 68 70 82 81 77 71 69 61 68 77 77 73 70 62 60 57 73 67 57 58 70 59 73
195 172 188 179 210 240 202 237 267 174 196 225 193 215 239 251 258 231 222 207 208 225 226 219 210 203 201 199 197 189 183 193 191 176 172 173 169 178 161 138 118 122 124 119 120 119 116 115 111 109 114 119 118 114 110 108 104 105 104 91 77 75 79 79 70 75 77 73 70 75 74 74 73 77 77 78 85 85 85 80 81 73 73 77 75 70 62 59 61 65 54 66 71 60 47 42 36
115 108 127 212 213 279 283 262 254 195 101 230 225 230 238 252 246 251 212 205 231 238 233 222 211 205 204 204 198 187 181 185 180 173 172 170 162 177 170 135 128 120 125 129 126 129 134 137 134 126 134 132 129 127 122 123 122 112 86 93 99 93 89 88 84 81 76 69 73 75 74 76 76 78 80 89 89 89 88 90 84 72 74 76 75 73 70 67 60 74 80 56 66 67 36 9 6
188 208 194 269 184 253 244 245 357 283 171 288 248 243 250 249 255 254 210 175 223 219 225 228 220 211 208 199 192 186 177 125 141 148 169 157 156 173 163 141 149 135 137 142 140 139 141 141 138 139 143 140 125 123 128 118 101 108 121 114 111 100 100 95 91 54 78 78 73 76 80 80 82 79 79 83 84 88 91 82 77 78 76 77 79 79 71 62 55 49 61 72 42 74 56 13 347
225 203 245 269 261 248 284 263 279 280 149 256 267 261 255 253 254 259 204 207 223 214 211 216 212 209 205 198 188 169 166 175 170 171 171 167 161 182 167 150 153 141 141 148 136 127 131 138 135 136 129 126 121 114 113 110 103 99 103 112 110 103 70 87 91 88 86 82 68 66 71 74 80 77 74 77 84 80 82 84 78 74 70 89 87 67 59 55 47 52 47 96 92 59 81 31 23
215 253 218 234 230 142 290 291 351 256 174 254 312 293 277 275 259 250 237 215 234 226 221 230 218 210 201 196 186 179 176 168 178 175 176 173 168 178 166 156 157 145 134 140 143 133 129 133 133 126 116 112 115 111 108 99 99 98 89 100 95 92 117 104 88 76 74 75 64 58 52 63 71 81 76 81 85 84 89 93 94 85 78 70 85 83 67 62 50 46 51 48 90 77 45 41 31
235 203 212 229 220 232 195 252 306 315 318 30 298 295 281 238 262 265 249 235 246 256 227 236 236 222 202 172 177 183 176 172 168 171 178 173 172 180 170 162 158 157 153 155 151 146 138 138 128 120 119 119 116 122 120 121 114 101 102 93 97 98 79 89 89 66 61 74 79 57 53 54 70 78 77 81 87 90 86 88 87 84 82 73 80 84 79 74 70 67 63 70 52 107 77 72 35
256 223 196 209 210 222 264 350 20 10 329 336 119 323 275 264 243 249 260 328 236 242 219 234 221 204 175 185 188 177 184 179 170 174 176 174 171 169 168 165 169 166 156 156 155 138 139 136 131 125 121 127 133 134 137 139 134 130 132 126 123 112 107 99 106 119 104 89 89 85 61 54 71 77 75 79 82 86 84 83 87 87 81 76 75 85 92 81 63 63 45 76 73 48 109 83 66
201 266 193 207 193 194 189 201 75 290 255 299 14 207 283 282 247 225 245 225 246 269 230 240 216 204 194 194 181 180 176 174 175 163 163 169 178 170 170 173 173 167 158 150 146 141 140 140 141 139 138 135 138 141 145 140 129 129 133 132 133 130 121 69 80 85 110 100 93 85 80 62 59 79 71 75 78 81 84 81 83 84 84 84 86 86 78 77 73 67 58 66 65 86 88 88 85
236 246 163 178 175 191 223 190 186 233 246 298 45 113 268 292 253 208 199 211 250 263 254 243 226 205 203 196 183 181 178 174 169 172 175 178 175 175 173 173 173 168 156 153 149 145 148 150 148 143 140 142 146 145 142 141 134 128 115 108 114 122 121 130 129 114 96 107 96 87 82 68 59 62 77 70 73 77 84 82 84 86 86 79 80 77 85 85 85 67 70 81 76 62 75 101 93
219 217 135 152 178 189 126 156 188 206 22 287 268 21 306 247 280 332 185 235 265 258 256 248 208 207 206 197 189 185 179 176 169 170 178 179 178 177 170 172 172 157 159 157 158 152 144 146 145 138 138 137 134 132 128 112 127 132 126 122 107 105 117 120 122 110 108 110 97 85 82 76 69 60 63 75 71 77 78 87 84 83 82 78 81 83 78 75 76 79 67 63 67 60 59 76 86
253 127 88 81 77 68 100 91 106 316 59 252 188 179 215 278 203 148 352 197 242 246 248 261 190 200 198 194 186 177 174 174 180 176 174 174 174 170 169 160 156 161 153 144 138 139 142 142 145 140 133 134 138 127 120 124 137 138 127 130 125 128 123 119 121 120 116 115 101 97 91 87 83 77 67 68 77 73 80 81 83 83 84 85 82 88 86 78 75 74 74 83 79 80 60 71 87
130 80 71 28 41 33 25 65 80 24 262 239 182 198 161 280 294 176 143 207 209 235 271 324 248 198 200 194 178 176 177 175 174 169 167 166 168 163 165 166 158 139 137 140 141 145 148 144 147 143 139 138 142 136 136 140 137 146 133 138 135 138 138 135 131 124 124 117 112 108 103 100 89 87 84 70 71 81 82 80 86 87 86 86 87 83 82 90 87 88 84 81 76 87 86 86 82
131 96 121 61 341 18 32 337 40 169 266 197 187 184 186 219 290 269 237 286 250 210 240 252 212 203 197 187 185 182 176 173 165 159 162 158 153 163 164 163 159 149 143 147 148 144 149 142 144 137 139 148 144 138 132 135 130 133 136 138 137 143 145 146 141 140 142 131 129 124 121 108 95 91 88 87 75 78 88 84 85 87 84 89 86 94 92 95 94 91 86 86 86 80 80 83 80
84 95 85 131 248 36 297 24 278 204 238 292 300 166 344 238 241 283 270 273 266 226 220 227 216 211 197 188 184 178 171 164 165 165 161 166 167 168 172 169 164 159 158 157 158 155 151 148 154 146 151 155 150 145 141 137 134 140 144 138 137 141 143 141 139 136 144 138 139 135 133 122 126 109 107 103 95 92 99 100 96 100 99 94 103 97 96 94 99 96 92 83 81 79 81 86 86
123 143 151 133 170 221 269 263 256 304 297 273 125 105 248 332 287 223 249 251 247 263 233 240 218 205 193 187 174 168 172 172 171 168 169 171 169 172 173 171 170 165 163 164 164 161 159 158 161 153 155 155 151 144 141 135 139 142 144 142 140 143 143 143 144 141 148 141 143 139 139 140 135 131 129 121 128 108 97 109 113 105 104 104 103 104 105 104 100 94 88 87 82 87 82 80 88
199 125 154 184 153 153 220 198 210 221 225 297 273 124 234 125 241 250 247 287 297 263 256 249 243 213 181 161 152 154 166 179 172 173 174 174 174 171 173 174 173 170 167 167 169 168 161 162 162 156 148 154 150 148 143 141 142 142 141 139 138 139 143 141 141 143 143 139 137 130 128 130 126 132 128 134 129 125 126 121 115 109 108 109 111 108 104 97 95 91 86 89 81 79 83 83 76
232 164 62 94 211 149 228 194 171 242 318 327 198 208 193 192 238 261 242 291 282 326 342 79 122 120 139 151 169 177 177 176 177 175 176 179 174 170 170 175 177 176 172 170 171 167 165 165 162 161 157 157 155 152 151 147 145 142 141 141 141 136 132 129 126 127 126 130 137 134 132 130 128 128 129 131 144 139 133 120 110 109 112 109 106 108 106 101 97 97 88 84 81 66 86 82 86
208 108 196 212 97 142 237 27 46 113 45 252 138 272 278 303 273 239 245 212 270 328 299 137 178 159 163 177 180 180 179 178 181 181 178 176 171 177 178 178 178 176 175 175 172 171 168 162 162 160 160 154 156 158 151 150 147 146 150 145 143 142 145 148 146 141 134 128 127 129 130 132 129 134 138 140 135 128 119 118 113 111 108 110 104 99 100 97 94 92 98 97 95 87 86 92 89
97 180 229 109 109 109 145 228 333 66 217 273 146 237 277 82 282 12 35 261 255 254 239 229 202 188 187 193 187 184 186 187 181 177 177 175 176 178 181 180 177 179 175 171 171 169 167 166 166 160 162 161 161 155 156 155 155 152 151 149 147 149 148 142 140 140 139 133 129 125 127 134 149 152 141 139 129 121 114 113 114 112 110 104 104 100 98 97 98 94 99 95 109 103 96 80 82
149 193 198 134 239 240 291 91 255 221 252 281 267 229 257 199 243 81 205 226 246 236 221 210 215 208 207 194 194 190 179 171 179 182 177 180 182 182 180 179 177 177 174 169 163 161 163 171 174 166 166 167 161 158 156 154 155 153 154 153 151 147 145 139 137 136 140 139 141 144 146 144 142 148 141 137 131 126 125 122 124 122 114 108 100 102 104 101 105 109 103 105 103 104 100 93 73
52 84 112 79 99 163 139 199 179 116 258 37 276 90 262 146 217 176 226 215 232 230 193 223 215 205 195 191 186 186 186 188 185 184 184 184 184 181 178 176 177 176 172 167 163 164 171 172 170 170 158 152 155 156 160 159 159 152 149 143 146 147 146 146 147 147 148 147 149 148 148 152 155 144 140 138 135 138 140 137 137 131 122 116 112 106 109 111 104 103 111 106 105 105 104 105 90
120 117 197 168 41 243 116 339 154 175 190 198 280 294 254 220 192 181 208 213 225 204 211 221 217 204 195 191 186 189 190 187 187 185 184 183 181 176 176 174 171 166 165 162 168 174 173 169 173 171 163 162 165 164 162 163 154 155 150 153 152 150 149 144 145 149 144 147 149 151 155 151 136 141 143 142 144 147 144 142 140 138 131 129 124 118 112 113 109 109 99 102 101 102 107 105 103
185 175 191 180 144 142 178 251 59 147 149 238 158 263 270 253 154 216 197 221 226 220 213 225 213 192 191 193 194 189 187 188 184 185 179 177 176 171 167 165 164 166 170 171 173 171 175 177 177 170 167 170 167 168 167 160 159 154 157 152 152 151 147 149 149 151 149 153 154 155 154 145 141 145 147 145 145 142 137 136 133 130 129 128 119 116 117 115 117 113 99 91 95 101 100 100 94